Dewpoint
-4 -5 -9 -13 -16 -18 -15 -11 -8 -6 -6 -7 -4 -6 -21 -22 -23 -26 -26 -23 -16 -3 -4 -2 -2 11 13 14 15 16 18 17 17 18 16 15 13 13 13 14 12 13 13 14 14
-4 -4 -6 -13 -17 -18 -19 -16 -12 -10 -8 -9 -6 -4 -15 -21 -22 -27 -27 -25 -14 -3 -3 -3 -2 5 12 12 15 16 18 17 16 16 16 15 13 13 14 13 14 13 14 14 14
-4 -4 -5 -12 -17 -19 -19 -19 -14 -13 -12 -11 -9 -5 -11 -20 -23 -6 -5 -26 -12 -3 -3 -1 -2 8 7 8 13 16 17 15 14 15 15 15 15 12 13 15 14 14 15 14 14
-4 -3 -4 -10 -16 -18 -18 -18 -17 -15 -14 -12 -11 -6 -12 -18 -4 -1 -5 -16 -12 -4 -4 -2 -1 3 9 10 14 16 16 16 15 15 15 15 15 12 12 14 13 14 14 14 14
-4 -3 -4 -9 -15 -16 -16 -16 -17 -16 -14 -13 -11 -8 -12 -13 -24 -2 -5 -12 -10 -6 -6 -4 3 5 10 10 16 16 15 16 16 15 15 15 15 14 15 13 14 14 14 14 15
-5 -6 -6 -9 -13 -15 -16 -16 -17 -16 -14 -13 -11 -9 -13 -12 -11 -1 -3 -11 -16 -8 -8 -6 3 6 9 9 15 15 15 16 16 16 15 15 16 14 14 13 14 14 15 15 14
-7 -9 -10 -10 -12 -14 -17 -19 -17 -15 -12 -12 -11 -10 -12 -10 -5 1 -0 -3 -10 -12 -10 -7 9 9 9 8 11 14 16 16 15 15 15 15 16 16 14 13 14 14 15 15 14
-5 -7 -12 -15 -17 -19 -21 -19 -12 -6 -7 -10 -12 -13 -10 -10 1 2 0 -2 -6 -9 -10 -9 5 8 9 7 2 14 16 17 15 14 14 14 17 15 13 14 14 14 14 14 14
-3 -6 -11 -15 -16 -19 -19 -11 -4 -6 -10 -14 -14 -10 -8 -6 -6 -0 -2 -4 -6 -12 -13 4 4 5 4 0 2 9 17 16 17 15 14 14 16 15 14 14 13 13 13 13 13
-2 -4 -8 -9 -8 -8 -9 -5 1 1 -3 -10 -5 4 -0 -1 -3 -6 -3 -2 -12 -7 -5 -3 0 2 -1 -0 5 7 12 15 16 15 15 16 14 15 15 14 14 12 13 13 13
-2 -2 -8 -8 -8 -3 -4 -3 1 1 -1 -3 -5 -4 -6 -1 -1 -5 -6 -1 -5 -4 -1 -1 2 3 1 -1 -0 2 2 10 16 15 15 16 16 15 15 15 14 12 11 12 13
-2 -1 -5 -9 -7 -6 -5 -3 -3 0 -1 -2 -3 -3 -5 -5 -3 -2 -5 -2 -5 -2 1 2 3 0 -2 -2 -0 3 3 17 16 15 16 16 16 14 15 15 15 12 11 12 13
-8 -2 -3 -9 -6 -4 -3 -4 0 0 -1 -4 -5 -5 -7 -3 -2 -2 -4 -3 -4 -0 2 3 1 -2 -1 -1 1 1 2 13 16 15 14 15 15 14 14 15 15 14 14 11 12
-9 -9 -4 -4 -7 -3 -4 -0 0 -2 -3 -5 -6 -7 -7 -6 -4 -5 -4 -3 -1 -1 1 1 0 -1 -1 0 1 2 1 1 15 15 16 14 16 15 14 16 15 15 14 10 12
-8 -11 -7 -5 -4 -3 -1 -1 -1 -4 2 -2 -5 -8 -7 -6 -3 -3 -3 -2 0 -0 -1 1 -0 0 1 0 -1 1 1 -3 13 13 15 15 17 14 16 17 16 16 15 12 11
-9 -12 -10 -6 -4 -2 -1 -1 -2 -2 2 2 -1 -1 -6 -7 -6 -4 -2 -1 -1 -0 -2 -1 -4 -2 -1 -2 -2 -1 -3 7 12 13 14 14 15 16 17 16 16 15 15 13 11
-12 -14 -12 -9 -3 -2 -1 -1 1 1 1 1 1 -0 -2 -5 -8 -7 -5 -1 1 1 0 -2 -2 -3 -5 -4 -5 -5 -2 4 13 14 14 12 15 13 14 14 15 15 15 13 11
-12 -14 -15 -11 -4 -3 -2 1 5 4 3 -0 0 -3 1 1 0 -1 -3 -2 -1 -1 1 2 2 -1 -4 -3 -3 -4 -3 4 11 13 12 12 14 12 14 13 14 14 15 14 13
-12 -12 -12 -6 -3 -2 2 4 5 4 2 3 -1 1 3 2 3 3 4 1 1 -1 1 2 2 -2 -3 -5 -5 -3 -2 -2 4 6 8 14 15 14 15 15 15 15 14 14 14
-11 -3 -6 -4 -1 1 0 3 4 3 2 2 1 2 4 4 3 6 5 4 1 1 -0 -0 2 -0 -1 -3 -6 -5 -3 2 3 10 9 13 16 15 17 16 15 15 15 15 15
-9 -0 -2 -1 1 1 3 3 3 2 2 1 -0 3 4 4 5 6 6 4 1 0 -0 1 1 1 1 -1 -2 -0 2 2 2 5 9 13 14 15 15 15 15 15 15 15 14
-1 0 -0 -3 2 4 3 4 3 2 2 -0 1 3 4 6 5 6 6 5 2 1 1 -0 3 4 2 1 1 -1 -0 2 4 4 11 11 14 13 14 14 15 14 14 15 15
0 0 0 1 -0 3 3 4 2 2 2 -3 -2 -0 2 4 3 4 5 3 3 -1 -1 -1 3 6 3 2 1 2 -1 1 1 3 13 13 13 14 14 14 14 14 15 15 15
2 -4 -3 1 0 1 3 2 1 0 -2 -2 -2 -4 1 2 3 2 2 2 1 2 0 2 3 5 6 4 3 4 3 0 -1 3 10 11 15 14 14 13 14 14 14 15 15
-0 -2 2 -4 -5 -1 0 2 -3 -4 -6 -1 0 1 1 1 1 2 0 -2 1 5 0 2 4 4 3 3 2 3 3 -1 -1 3 9 13 15 14 13 13 14 14 14 14 14
2 3 4 3 -3 -5 -5 -4 -4 -5 -5 -2 3 1 0 1 2 2 -0 -1 0 -0 2 0 5 5 5 4 3 0 -0 -0 8 13 13 13 14 12 13 13 13 12 12 13 13
1 4 4 1 -5 -3 -3 -3 -3 -4 -4 -2 1 2 -0 -1 -2 -3 -2 -2 -2 0 1 1 3 7 7 6 3 1 -0 0 8 12 12 14 13 12 12 12 12 11 11 11 12
Wind_Speed
12 11 11 11 12 11 11 10 10 10 9 9 9 10 10 9 10 13 15 8 14 14 17 17 14 13 11 8 11 1 2 0 4 5 6 4 12 14 11 27 15 3 26 35 33
12 12 12 12 11 10 10 9 10 10 11 9 9 9 10 11 12 16 7 10 17 17 22 20 19 15 6 6 5 4 1 1 5 10 5 8 17 18 13 16 22 29 26 32 32
12 11 12 12 11 10 9 9 8 9 10 10 8 8 8 11 11 1 2 15 20 19 17 14 16 14 5 6 6 4 2 2 3 19 16 13 11 19 26 10 31 37 35 34 31
12 12 11 12 12 10 9 7 8 8 9 10 9 8 7 7 2 3 3 15 21 19 18 16 15 8 3 3 7 2 6 6 5 15 19 16 13 17 16 14 38 39 38 36 34
13 13 12 11 11 11 11 9 8 8 8 8 9 8 6 5 7 3 4 15 22 23 21 20 20 8 3 2 7 4 5 9 8 14 20 16 13 15 10 31 38 38 39 39 36
16 15 13 12 10 10 10 9 8 7 7 6 6 7 5 4 5 5 3 10 19 22 23 22 14 15 4 6 8 10 4 12 9 15 14 15 10 12 17 35 37 40 40 39 35
19 18 17 14 11 10 9 7 6 7 6 6 6 7 9 10 5 7 4 5 14 19 24 24 11 8 2 6 4 9 7 6 10 7 7 27 7 11 15 35 36 37 37 35 34
20 20 18 15 13 10 6 5 5 4 4 4 5 6 8 2 9 12 7 8 14 14 16 19 19 7 5 7 4 8 4 7 9 10 10 3 3 10 23 31 30 33 30 31 32
19 20 19 15 12 9 5 4 3 4 3 1 3 4 6 7 17 13 8 4 11 13 12 12 6 6 3 1 4 1 3 4 7 6 7 3 4 12 18 22 28 29 30 29 32
17 18 17 14 11 9 7 5 6 5 1 1 5 4 3 2 5 15 12 7 9 12 7 8 6 2 3 4 4 3 4 2 4 10 6 2 2 13 18 19 20 24 26 29 30
15 16 15 12 9 6 8 5 4 2 9 11 14 14 19 4 3 10 13 14 7 9 5 7 4 5 7 6 4 3 2 4 6 7 7 5 6 15 19 11 18 23 21 30 35
14 14 14 11 7 5 6 8 7 11 10 19 21 22 20 15 5 7 16 11 6 4 4 5 4 7 3 6 4 3 1 5 11 8 9 10 7 4 10 19 22 33 18 31 30
14 13 12 12 9 7 9 9 17 21 2 10 7 10 6 4 5 7 21 13 5 4 4 5 4 5 5 2 4 1 3 7 5 8 8 9 6 11 4 19 24 34 14 30 36
18 14 11 8 7 7 4 15 20 10 4 5 3 4 8 3 3 9 21 17 1 8 6 4 5 4 3 3 5 2 5 5 16 8 4 2 3 10 10 13 20 32 18 28 37
19 15 10 8 7 7 10 14 12 2 3 12 4 1 5 6 0 8 23 16 8 5 7 7 3 4 6 5 6 7 3 5 9 4 6 4 1 5 6 12 14 28 23 22 36
21 17 11 8 7 3 9 11 4 5 3 7 6 6 2 2 2 5 11 13 9 4 2 6 3 5 7 6 9 3 1 6 6 4 1 8 6 4 7 14 17 31 29 28 35
21 15 11 7 4 4 9 8 5 3 5 6 4 6 5 6 2 2 3 2 5 3 3 4 5 3 6 3 2 4 5 1 2 1 5 9 7 6 5 11 19 31 31 35 36
17 11 6 4 5 5 9 4 4 1 2 3 5 5 5 7 5 7 4 2 2 5 3 3 4 7 3 8 6 6 10 5 6 5 3 5 5 4 5 14 16 16 21 23 32
11 4 2 5 5 2 2 4 6 3 3 6 3 6 6 5 3 3 5 1 5 1 8 5 5 2 2 5 9 4 4 9 5 2 4 2 4 1 5 8 15 20 24 26 24
8 3 5 5 2 2 5 3 3 3 2 3 3 3 3 6 5 5 3 3 2 2 4 1 1 2 5 2 4 8 6 4 3 5 4 1 2 3 2 4 8 12 19 18 21
4 1 6 8 2 4 3 4 4 5 5 3 0 3 2 2 2 1 2 2 1 3 7 2 3 5 2 1 4 1 2 5 5 5 5 3 5 1 6 7 9 13 14 14 16
5 2 7 14 4 3 1 3 3 2 3 1 3 2 4 3 2 1 3 4 5 3 3 3 4 2 7 7 2 5 9 7 5 3 1 3 5 2 8 9 14 13 11 9 8
3 1 12 13 2 2 3 3 3 2 4 3 0 1 2 4 1 3 3 6 9 2 4 2 2 3 8 6 7 6 5 3 4 4 6 6 4 4 7 7 7 13 13 13 11
3 2 3 7 1 5 1 3 3 4 4 2 3 3 1 2 2 3 3 3 0 5 13 6 3 4 5 4 3 6 7 7 3 4 6 4 7 9 10 9 10 12 10 13 13
5 1 2 1 1 2 2 2 3 2 5 12 5 4 1 3 5 3 3 4 5 5 5 5 3 2 4 5 2 6 8 7 6 5 6 10 13 17 12 13 15 15 13 11 12
4 4 3 3 0 5 4 5 4 2 4 4 3 4 5 4 1 4 4 5 2 1 2 3 4 3 3 7 7 3 7 10 4 8 8 12 5 6 16 19 17 15 14 13 13
4 4 2 7 3 3 2 2 2 2 2 2 3 1 2 2 6 13 12 8 7 2 3 3 4 2 3 7 6 4 9 6 4 1 16 9 7 13 14 17 18 18 18 19 17
Wind_Direction
328 325 324 320 315 308 304 303 297 291 291 291 290 294 291 287 276 262 251 224 195 179 172 168 170 165 162 208 223 197 312 116 123 149 162 178 130 149 125 134 131 119 147 149 157
331 329 327 323 317 312 307 299 300 297 291 289 284 288 295 295 288 269 244 196 183 172 171 175 175 171 171 218 201 196 255 279 95 156 197 145 137 129 125 137 111 122 143 157 159
333 333 327 324 321 317 310 299 292 296 293 290 283 282 293 306 308 136 158 189 182 168 170 169 168 165 214 204 199 152 237 107 235 176 189 151 129 146 146 140 143 144 149 164 165
340 334 329 327 323 319 314 302 292 292 294 292 287 274 282 298 211 113 67 186 180 167 170 173 169 166 215 209 192 150 215 226 221 197 175 167 145 153 168 165 157 156 164 164 171
345 337 330 327 325 324 321 312 297 291 292 290 285 271 268 265 251 153 75 175 177 181 181 180 179 148 205 236 170 234 201 198 197 189 154 144 154 154 161 157 160 161 166 171 178
350 344 337 329 325 323 323 317 305 296 293 280 268 263 247 254 190 168 134 169 188 190 184 186 196 183 267 246 194 193 112 115 127 166 144 131 122 149 159 160 161 164 171 176 179
351 351 347 340 331 329 325 318 314 306 296 277 246 244 245 246 201 175 167 222 201 199 191 190 151 170 312 315 228 155 125 71 131 133 137 124 132 142 155 158 163 172 175 182 185
353 354 353 347 341 337 333 337 334 324 298 262 237 243 249 185 198 182 184 199 204 200 205 205 200 259 252 302 296 160 140 149 187 147 150 134 143 122 148 162 171 176 176 181 190
352 354 359 1 359 359 14 16 8 4 345 198 191 247 259 215 209 198 201 188 195 197 192 141 174 232 254 138 12 306 191 188 176 198 153 65 166 168 180 160 186 187 179 183 186
346 349 357 7 12 15 20 344 324 299 332 298 257 301 254 100 212 219 201 189 171 171 163 180 199 134 46 82 193 76 92 234 162 186 165 41 219 174 181 197 192 194 188 181 185
343 344 348 356 2 17 344 333 357 303 280 250 275 264 290 259 199 206 195 186 150 152 144 174 126 194 206 179 144 98 20 356 58 59 79 43 4 176 195 203 216 207 184 187 190
344 339 338 341 346 327 333 1 22 342 298 287 272 263 263 273 301 201 197 167 158 156 123 42 213 209 190 173 143 121 14 86 93 103 92 28 354 345 219 207 212 208 192 178 181
349 338 336 331 329 320 340 32 350 347 280 293 266 252 249 185 208 220 188 190 138 154 135 148 225 156 169 169 111 153 178 175 136 101 90 124 333 285 203 222 203 221 234 178 181
345 341 329 325 313 303 360 345 340 335 56 285 297 282 179 187 258 204 190 191 153 185 151 221 238 192 225 177 121 207 225 191 142 154 159 216 246 230 198 202 198 215 220 183 184
338 331 315 304 298 305 320 339 338 354 61 336 344 90 171 173 174 188 187 185 193 160 110 233 192 170 209 196 146 231 216 250 156 112 106 218 111 282 142 192 189 205 227 191 189
329 321 310 294 287 277 329 336 344 39 26 336 346 351 76 8 315 157 193 190 205 141 34 227 240 156 214 218 184 185 244 53 52 112 147 186 175 242 193 193 173 192 208 194 175
324 309 291 258 207 298 321 335 48 96 340 342 325 349 350 356 289 132 126 144 151 118 341 331 272 228 188 224 87 127 85 97 359 334 220 170 170 260 238 184 187 193 180 175 175
326 311 276 218 206 288 321 56 80 291 318 301 318 350 63 9 9 359 105 193 44 89 121 139 312 175 175 179 178 179 156 164 193 182 208 110 222 242 309 237 201 188 185 172 168
334 331 206 171 195 264 31 59 195 199 298 336 13 46 350 353 67 53 7 11 33 99 170 157 265 303 174 211 147 192 144 200 132 28 97 205 297 300 41 57 110 140 167 185 184
353 16 161 172 175 12 71 225 222 240 356 18 85 60 8 329 28 36 28 298 111 104 184 309 286 265 286 190 220 163 172 87 5 136 175 280 304 253 83 113 102 94 117 150 170
13 70 174 173 170 28 116 239 257 259 227 153 10 115 172 267 104 62 303 266 194 13 95 52 126 279 332 160 193 39 174 47 118 127 150 160 250 164 179 155 120 118 129 147 168
19 38 176 172 55 17 138 214 291 280 234 205 93 133 143 186 307 243 232 242 193 140 69 357 130 251 223 259 298 213 201 158 130 206 46 118 259 98 126 132 128 128 138 142 157
31 62 165 175 131 298 289 280 256 293 9 347 113 131 120 178 190 238 260 273 273 70 114 7 6 19 342 356 9 30 348 30 108 97 177 143 239 135 121 119 138 137 136 138 140
85 64 55 211 94 136 181 306 29 26 32 290 50 58 118 336 121 286 274 302 163 173 112 98 75 146 169 221 226 303 315 313 147 130 155 192 153 188 170 159 144 129 132 128 128
32 46 39 356 308 110 110 350 53 30 6 22 21 20 196 28 340 344 307 313 29 151 83 116 140 221 229 237 281 267 280 299 233 166 160 185 175 194 168 153 140 138 140 130 134
47 30 17 28 27 94 351 359 43 31 38 340 56 353 107 117 189 315 351 355 244 333 91 50 187 169 354 335 352 277 346 347 137 98 63 134 133 135 138 128 136 142 137 126 138
54 23 9 7 33 62 274 180 21 111 342 13 304 135 51 74 280 275 262 246 253 179 127 135 120 65 246 332 337 2 344 303 266 125 139 166 187 144 143 156 143 133 131 127 126
Height
1509 1508 1506 1505 1504 1503 1501 1501 1500 1498 1497 1497 1496 1496 1496 1495 1494 1493 1492 1495 1496 1499 1502 1505 1506 1509 1511 1512 1513 1512 1515 1518 1516 1515 1520 1518 1517 1523 1524 1524 1530 1532 1536 1542 1546
1508 1506 1504 1503 1501 1500 1499 1498 1498 1497 1495 1494 1494 1494 1494 1493 1491 1489 1491 1491 1494 1497 1500 1502 1504 1508 1511 1511 1512 1513 1515 1515 1512 1516 1515 1517 1519 1520 1527 1531 1533 1536 1544 1546 1550
1506 1504 1502 1500 1499 1498 1496 1495 1495 1495 1494 1493 1493 1492 1492 1492 1490 1486 1486 1488 1492 1496 1500 1503 1506 1509 1510 1509 1510 1511 1511 1510 1512 1513 1515 1517 1521 1522 1526 1533 1531 1535 1542 1548 1553
1505 1503 1501 1499 1497 1495 1494 1493 1492 1492 1492 1492 1491 1491 1491 1492 1492 1486 1486 1487 1491 1496 1498 1501 1505 1509 1511 1509 1508 1510 1507 1505 1511 1512 1517 1519 1522 1524 1527 1530 1532 1536 1543 1548 1554
1504 1502 1499 1497 1495 1494 1493 1492 1491 1490 1489 1489 1490 1490 1490 1491 1487 1486 1486 1486 1490 1493 1496 1499 1502 1507 1509 1508 1509 1507 1505 1506 1507 1512 1516 1518 1522 1524 1528 1532 1536 1541 1545 1548 1553
1503 1501 1499 1496 1493 1492 1491 1490 1490 1488 1487 1487 1488 1489 1489 1490 1485 1486 1487 1488 1490 1492 1495 1499 1502 1505 1508 1506 1506 1500 1506 1508 1511 1512 1517 1519 1526 1528 1532 1533 1538 1542 1546 1551 1553
1502 1499 1498 1495 1493 1490 1489 1488 1487 1487 1486 1486 1485 1486 1487 1483 1484 1485 1487 1488 1490 1492 1494 1498 1503 1506 1507 1504 1502 1501 1506 1511 1513 1515 1517 1521 1530 1529 1531 1533 1538 1542 1547 1551 1555
1502 1499 1496 1494 1492 1490 1487 1487 1487 1485 1484 1484 1485 1485 1482 1481 1483 1484 1486 1487 1490 1493 1497 1501 1504 1506 1508 1504 1501 1503 1506 1519 1514 1515 1519 1521 1538 1532 1533 1535 1539 1542 1547 1551 1554
1501 1498 1495 1493 1492 1490 1488 1487 1486 1486 1485 1484 1485 1486 1479 1480 1480 1483 1485 1487 1489 1493 1497 1501 1505 1506 1505 1507 1514 1506 1517 1517 1518 1515 1517 1522 1534 1531 1533 1535 1540 1542 1546 1550 1554
1501 1498 1496 1493 1491 1491 1489 1488 1487 1486 1486 1485 1485 1487 1479 1480 1480 1481 1484 1487 1489 1492 1498 1502 1503 1505 1509 1514 1531 1518 1516 1515 1514 1515 1519 1527 1530 1531 1535 1537 1537 1541 1545 1549 1552
1500 1497 1495 1493 1491 1490 1490 1489 1490 1488 1485 1481 1480 1478 1477 1478 1478 1479 1483 1486 1489 1491 1497 1498 1506 1512 1507 1507 1507 1508 1510 1511 1514 1520 1526 1532 1532 1527 1534 1537 1539 1540 1542 1546 1550
1500 1496 1494 1492 1490 1489 1487 1488 1489 1491 1482 1476 1473 1473 1475 1477 1478 1478 1482 1486 1488 1493 1493 1502 1509 1500 1500 1503 1505 1509 1512 1522 1526 1524 1525 1533 1533 1536 1535 1535 1535 1536 1541 1542 1548
1499 1496 1493 1492 1490 1490 1487 1487 1487 1485 1482 1472 1470 1470 1472 1475 1475 1476 1480 1483 1486 1492 1495 1504 1498 1495 1499 1502 1507 1510 1511 1514 1524 1529 1529 1534 1542 1536 1532 1533 1535 1538 1541 1541 1543
1499 1496 1494 1491 1491 1489 1489 1486 1485 1482 1491 1478 1470 1469 1471 1473 1474 1473 1478 1483 1485 1492 1495 1497 1493 1495 1498 1503 1506 1516 1502 1504 1517 1528 1539 1527 1549 1530 1526 1528 1531 1535 1538 1539 1540
1496 1494 1490 1491 1489 1489 1489 1486 1483 1482 1505 1472 1471 1470 1470 1473 1473 1472 1475 1480 1485 1487 1493 1499 1492 1496 1501 1502 1502 1508 1502 1502 1512 1526 1535 1539 1544 1522 1520 1524 1528 1523 1533 1534 1537
1493 1491 1489 1488 1487 1489 1487 1485 1485 1498 1501 1481 1473 1473 1471 1472 1472 1473 1475 1478 1481 1485 1488 1490 1488 1490 1492 1491 1495 1497 1499 1509 1518 1526 1543 1532 1538 1524 1523 1511 1515 1521 1526 1529 1534
1490 1487 1486 1485 1486 1487 1486 1485 1500 1508 1486 1489 1482 1478 1477 1479 1474 1474 1476 1481 1489 1500 1502 1493 1490 1487 1487 1493 1494 1497 1511 1534 1548 1547 1543 1518 1537 1514 1507 1503 1505 1504 1515 1524 1531
1486 1483 1483 1484 1484 1485 1486 1489 1505 1493 1491 1485 1484 1481 1486 1485 1484 1480 1482 1488 1485 1489 1505 1508 1509 1486 1482 1488 1495 1500 1509 1533 1543 1552 1534 1522 1531 1510 1504 1503 1508 1514 1522 1528 1532
1483 1481 1482 1485 1484 1485 1487 1504 1502 1495 1490 1490 1488 1493 1492 1487 1486 1485 1491 1491 1489 1487 1501 1509 1502 1479 1478 1479 1484 1493 1508 1495 1512 1517 1530 1527 1519 1506 1503 1506 1508 1512 1518 1526 1533
1482 1481 1483 1484 1486 1486 1490 1500 1497 1491 1490 1490 1495 1494 1500 1496 1493 1494 1492 1488 1488 1487 1488 1491 1503 1481 1476 1474 1477 1483 1484 1508 1517 1536 1532 1529 1526 1520 1512 1511 1512 1515 1518 1525 1531
1484 1483 1484 1486 1487 1487 1501 1501 1493 1489 1488 1490 1491 1495 1497 1496 1495 1497 1495 1487 1486 1485 1485 1490 1497 1492 1480 1482 1486 1487 1490 1498 1502 1514 1530 1534 1528 1510 1510 1512 1513 1516 1520 1524 1529
1485 1485 1484 1486 1491 1497 1499 1494 1490 1488 1487 1486 1488 1491 1494 1496 1495 1496 1494 1488 1484 1482 1489 1491 1502 1503 1492 1476 1478 1478 1483 1487 1510 1510 1517 1510 1522 1509 1509 1512 1513 1517 1520 1522 1526
1486 1486 1487 1487 1497 1499 1495 1493 1490 1487 1488 1487 1488 1487 1491 1495 1498 1494 1490 1483 1484 1481 1489 1491 1505 1512 1497 1488 1481 1490 1484 1486 1489 1498 1511 1518 1522 1508 1512 1516 1517 1517 1521 1523 1526
1486 1491 1489 1489 1490 1493 1494 1493 1491 1489 1488 1487 1487 1487 1489 1491 1494 1495 1491 1482 1483 1483 1478 1488 1508 1509 1519 1510 1503 1502 1491 1484 1488 1504 1512 1511 1510 1510 1511 1515 1519 1521 1524 1525 1524
1487 1491 1492 1496 1492 1492 1494 1493 1493 1495 1491 1489 1489 1491 1491 1495 1494 1493 1490 1486 1483 1482 1483 1489 1504 1504 1503 1501 1498 1496 1492 1488 1487 1483 1492 1502 1500 1498 1503 1509 1515 1520 1523 1524 1524
1491 1491 1491 1492 1492 1493 1497 1498 1496 1496 1495 1495 1494 1493 1490 1498 1497 1497 1494 1489 1486 1485 1485 1489 1505 1500 1499 1495 1496 1494 1488 1482 1477 1484 1489 1494 1499 1498 1506 1509 1515 1520 1521 1523 1526
1493 1492 1493 1494 1494 1497 1500 1497 1497 1496 1497 1495 1494 1493 1493 1493 1491 1491 1489 1489 1487 1487 1492 1496 1503 1508 1507 1501 1498 1506 1495 1491 1481 1477 1480 1500 1493 1498 1507 1513 1515 1520 1524 1525 1527